| time (UTC) | temp C | wind direction | speed KPH | gust KPH | rain 1hr cm | rain 24hr cm | rain mn cm | humidity % | barometer mb |
| 20260503210054 | 16 | 227 | 9.7 | 27.4 | 0.00 | 0.00 | 0.00 | 44 | 1010.4 |
| 20260503204552 | 16 | 261 | 17.7 | 38.6 | 0.00 | 0.00 | 0.00 | 44 | 1010.6 |
| 20260503203053 | 16 | 248 | 11.3 | 32.2 | 0.00 | 0.00 | 0.00 | 44 | 1010.6 |
| 20260503201550 | 16 | 192 | 17.7 | 35.4 | 0.00 | 0.00 | 0.00 | 43 | 1010.8 |
| 20260503200100 | 16 | 247 | 11.3 | 30.6 | 0.00 | 0.00 | 0.00 | 42 | 1010.9 |
| 20260503194556 | 16 | 257 | 8.0 | 19.3 | 0.00 | 0.00 | 0.00 | 42 | 1011.1 |
| 20260503193059 | 16 | 119 | 14.5 | 35.4 | 0.00 | 0.00 | 0.00 | 42 | 1011.2 |
| 20260503191603 | 16 | 264 | 9.7 | 29.0 | 0.00 | 0.00 | 0.00 | 43 | 1011.5 |
| 20260503190051 | 16 | 287 | 11.3 | 30.6 | 0.00 | 0.00 | 0.00 | 44 | 1011.7 |
| 20260503184552 | 16 | 269 | 11.3 | 29.0 | 0.00 | 0.00 | 0.00 | 43 | 1011.8 |
| 20260503183112 | 16 | 257 | 9.7 | 30.6 | 0.00 | 0.00 | 0.00 | 44 | 1012.1 |
| 20260503181614 | 15 | 242 | 9.7 | 32.2 | 0.00 | 0.00 | 0.00 | 46 | 1012.1 |
| 20260503180052 | 15 | 292 | 17.7 | 27.4 | 0.00 | 0.00 | 0.00 | 43 | 1012.4 |
| 20260503174553 | 15 | 286 | 16.1 | 37.0 | 0.00 | 0.00 | 0.00 | 45 | 1012.7 |
| 20260503173059 | 15 | 269 | 11.3 | 33.8 | 0.00 | 0.00 | 0.00 | 43 | 1012.9 |
| 20260503171558 | 14 | 290 | 14.5 | 30.6 | 0.00 | 0.00 | 0.00 | 45 | 1013.2 |
| 20260503100104 | 3 | 182 | 1.6 | 8.0 | 0.00 | 0.00 | 0.00 | 67 | 1014.6 |
| 20260503081552 | 2 | 230 | 0.0 | 3.2 | 0.00 | 0.00 | 0.00 | 68 | 1015.3 |
| 20260503071558 | 3 | 0 | 0.0 | 3.2 | 0.00 | 0.00 | 0.00 | 68 | 1015.5 |
| 20260503070110 | 3 | 0 | 0.0 | 3.2 | 0.00 | 0.00 | 0.00 | 68 | 1015.4 |
| 20260503060114 | 2 | 296 | 1.6 | 4.8 | 0.00 | 0.00 | 0.00 | 70 | 1015.9 |
| 20260503054559 | 2 | 296 | 0.0 | 3.2 | 0.00 | 0.00 | 0.00 | 70 | 1016.0 |
| 20260503053052 | 2 | 0 | 0.0 | 1.6 | 0.00 | 0.00 | 0.00 | 69 | 1016.1 |
| 20260503051554 | 3 | 0 | 0.0 | 3.2 | 0.00 | 0.00 | 0.00 | 69 | 1016.1 |
| 20260503050053 | 3 | 0 | 0.0 | 3.2 | 0.00 | 0.00 | 0.00 | 68 | 1016.3 |
| 20260503044548 | 3 | 0 | 0.0 | 4.8 | 0.00 | 0.00 | 0.00 | 68 | 1016.3 |
| 20260503043050 | 3 | 0 | 0.0 | 3.2 | 0.00 | 0.00 | 0.00 | 68 | 1016.2 |
| 20260503041555 | 3 | 0 | 0.0 | 3.2 | 0.00 | 0.00 | 0.00 | 68 | 1016.3 |
| 20260503040051 | 3 | 0 | 0.0 | 3.2 | 0.00 | 0.00 | 0.00 | 68 | 1016.4 |
| 20260503034606 | 4 | 0 | 0.0 | 1.6 | 0.00 | 0.00 | 0.00 | 68 | 1016.5 |
| 20260503033056 | 4 | 0 | 0.0 | 3.2 | 0.00 | 0.00 | 0.00 | 67 | 1016.5 |
| 20260503031557 | 5 | 296 | 0.0 | 3.2 | 0.00 | 0.00 | 0.00 | 66 | 1016.5 |
| 20260503030058 | 5 | 296 | 0.0 | 1.6 | 0.00 | 0.00 | 0.00 | 66 | 1016.6 |
| 20260503024556 | 5 | 0 | 0.0 | 1.6 | 0.00 | 0.00 | 0.00 | 64 | 1016.6 |
| 20260503023108 | 5 | 0 | 0.0 | 1.6 | 0.00 | 0.00 | 0.00 | 62 | 1016.7 |
| 20260503021553 | 6 | 0 | 0.0 | 1.6 | 0.00 | 0.00 | 0.00 | 60 | 1016.6 |
| 20260503020100 | 6 | 0 | 0.0 | 1.6 | 0.00 | 0.00 | 0.00 | 57 | 1016.4 |
| 20260503014604 | 6 | 0 | 0.0 | 3.2 | 0.00 | 0.00 | 0.00 | 56 | 1016.4 |
| 20260503013109 | 7 | 0 | 0.0 | 1.6 | 0.00 | 0.00 | 0.00 | 55 | 1016.2 |
| 20260503011610 | 7 | 315 | 0.0 | 1.6 | 0.00 | 0.00 | 0.00 | 54 | 1016.2 |
| 20260503010122 | 7 | 0 | 0.0 | 1.6 | 0.00 | 0.00 | 0.00 | 52 | 1016.1 |
| 20260503004600 | 7 | 0 | 0.0 | 1.6 | 0.00 | 0.00 | 0.00 | 50 | 1016.0 |
| 20260503003113 | 7 | 0 | 0.0 | 3.2 | 0.00 | 0.00 | 0.00 | 49 | 1015.9 |
| 20260503001610 | 8 | 315 | 1.6 | 8.0 | 0.00 | 0.00 | 0.00 | 49 | 1015.9 |
| 20260503000057 | 8 | 324 | 1.6 | 6.4 | 0.00 | 0.00 | 0.00 | 48 | 1015.9 |
| 20260502234548 | 8 | 308 | 3.2 | 12.9 | 0.00 | 0.00 | 0.00 | 49 | 1015.9 |
| 20260502233051 | 8 | 254 | 1.6 | 11.3 | 0.00 | 0.00 | 0.00 | 48 | 1016.0 |
| 20260502231555 | 8 | 338 | 4.8 | 14.5 | 0.00 | 0.00 | 0.00 | 47 | 1016.1 |
| 20260502230051 | 8 | 306 | 6.4 | 14.5 | 0.00 | 0.00 | 0.00 | 47 | 1016.1 |
| 20260502224552 | 8 | 342 | 4.8 | 14.5 | 0.00 | 0.00 | 0.00 | 47 | 1016.2 |
| 20260502223054 | 8 | 327 | 4.8 | 12.9 | 0.00 | 0.00 | 0.00 | 46 | 1016.2 |
| 20260502221554 | 8 | 342 | 3.2 | 12.9 | 0.00 | 0.00 | 0.00 | 45 | 1016.3 |
| 20260502220053 | 8 | 15 | 4.8 | 14.5 | 0.00 | 0.00 | 0.00 | 45 | 1016.3 |
| 20260502214617 | 8 | 337 | 9.7 | 17.7 | 0.00 | 0.00 | 0.00 | 44 | 1016.3 |
| 20260502213056 | 8 | 270 | 6.4 | 16.1 | 0.00 | 0.00 | 0.00 | 46 | 1016.3 |
| 20260502211604 | 8 | 325 | 8.0 | 16.1 | 0.00 | 0.00 | 0.00 | 45 | 1016.4 |